sat.trackr.live / text

‹ back to catalog

PVCC

NORAD 58025 · 2023-155K

PAYLOAD ACTIVE UNKNOWN

§ Identity

Operator
Country
BEL
Launch date
2023-10-09
Launch site
FRGUI
Launch vehicle
Mass (kg)
RCS (m²)

External: N2YO · Heavens-Above · Gunter

§ Orbital elements

Epoch: 2026-05-25T03:54:49.122720Z

Period
95.01 min
Inclination
97.5705°
Eccentricity
0.0003989
Mean motion
15.15641263 rev/d
Perigee alt
516.3 km
Apogee alt
521.8 km
Semi-major
6,897.2 km
B*
3.3192e-4
RAAN
221.7717°
Arg perigee
191.2464°
Mean anomaly
168.8680°
Rev number
14,449

§ Raw data

PVCC1 58025U 23155K   26145.16306855  .00006245  00000+0  33192-3 0  99952 58025  97.5705 221.7717 0003989 191.2464 168.8680 15.15641263144491

JSON: /api/v1/satellites/58025 · /tle

For live sub-satellite position, see the globe view (requires WebGL).

§ Visibility from observer

Set your observer location to see the next 7 days of passes ≥ 10°. The values pass through the URL so the page stays shareable.

No JS? Fill the form by hand. The geolocation button needs JavaScript.

§ Radio — SatNOGS DB

ModeDescriptionDownlinkUplink
BPSK S-Band Transmitter 2.221 GHz
BPSK X-Band transmitter 8.176 GHz

2 transmitters · refreshed weekly from db.satnogs.org